Location: Vihti�l�
(61.3833°N, 23.0667°E)
Time: 05:14:35
(UTC+00:00)

TRAILBLAZER - Pass Details

Date: 29 November 2020
Orbit: 621 x 647 km, 64.6° (Epoch: 22 January)

Event Time Altitude Azimuth Distance (km) Brightness Sun altitude
Exits shadow 04:02:29 49° 251° (WSW) 821 4.8 -20.4°
Maximum altitude 04:03:42 84° 333° (NNW) 643 4.5 -20.3°
Drops below altitude 10° 04:08:19 10° 64° (ENE) 2,031 8.0 -19.7°
Sets 04:10:37 0° 65° (ENE) 2,945 9.0 -19.5°
